N5MDT Weather Reports


time (UTC)temp
C
wind
direction
speed
KPH
gust
KPH
rain 1hr
cm
rain 24hr
cm
rain mn
cm
humidity
%
barometer
mb
20260508142824 19 103 0.0 4.8 0.00 0.00 0.00 86 1015.0
20260508141839 19 63 3.2 3.2 0.00 0.00 0.00 86 1014.9
20260508140824 19 76 0.0 0.0 0.00 0.00 0.00 86 1014.9
20260508135824 19 40 0.0 0.0 0.00 0.00 0.00 86 1015.1
20260508134823 19 30 0.0 0.0 0.00 0.00 0.00 85 1015.2
20260508133824 19 30 0.0 1.6 0.00 0.00 0.00 85 1015.1
20260508132824 19 325 0.0 3.2 0.00 0.00 0.00 85 1014.8
20260508131823 19 286 1.6 4.8 0.00 0.00 0.00 85 1014.9
20260508130823 19 335 0.0 1.6 0.00 0.00 0.00 85 1014.6
20260508125839 19 335 0.0 0.0 0.00 0.00 0.00 85 1014.7
20260508124823 19 335 0.0 0.0 0.00 0.00 0.00 84 1014.6
20260508123823 19 335 0.0 1.6 0.00 0.00 0.00 84 1014.5
20260508122823 19 89 0.0 3.2 0.00 0.00 0.00 84 1013.9
20260508121839 19 89 0.0 0.0 0.00 0.00 0.00 83 1014.2
20260508120823 19 89 0.0 3.2 0.00 0.00 0.00 83 1014.5
20260508115823 19 342 0.0 3.2 0.00 0.00 0.00 82 1014.7
20260508114823 20 157 0.0 6.4 0.00 0.00 0.00 82 1014.1
20260508113823 20 131 3.2 4.8 0.00 0.00 0.00 81 1014.2
20260508112823 20 59 0.0 4.8 0.00 0.00 0.00 82 1013.8
20260508111822 20 86 0.0 0.0 0.00 0.00 0.00 80 1014.8
20260508110822 20 86 0.0 0.0 0.00 0.00 0.00 79 1013.9
20260508105822 20 86 0.0 1.6 0.00 0.00 0.00 79 1013.9
20260508104822 20 86 0.0 1.6 0.00 0.00 0.00 79 1014.0
20260508103822 20 63 0.0 1.6 0.00 0.00 0.00 79 1014.5
20260508102822 20 84 0.0 1.6 0.00 0.00 0.00 79 1014.9
20260508101822 20 66 0.0 1.6 0.00 0.00 0.00 79 1014.8
20260508100822 20 37 0.0 1.6 0.00 0.00 0.00 79 1014.7
20260508095822 20 351 0.0 0.0 0.00 0.00 0.00 78 1014.7
20260508094837 20 351 0.0 3.2 0.00 0.00 0.00 78 1014.7
20260508093822 20 67 0.0 1.6 0.00 0.00 0.00 78 1014.2
20260508092822 20 333 0.0 1.6 0.00 0.00 0.00 78 1014.7
20260508091822 20 112 0.0 11.3 0.00 0.00 0.00 77 1014.2
20260508090821 20 74 3.2 6.4 0.00 0.00 0.00 77 1013.9
20260508085822 20 61 0.0 1.6 0.00 0.00 0.00 77 1014.1
20260508084821 20 61 0.0 1.6 0.00 0.00 0.00 77 1014.4
20260508083821 20 48 0.0 1.6 0.00 0.00 0.00 77 1014.3
20260508082837 20 62 0.0 0.0 0.00 0.00 0.00 77 1014.1
20260508081821 20 62 0.0 0.0 0.00 0.00 0.00 77 1014.5
20260508080836 20 62 0.0 4.8 0.00 0.00 0.00 76 1014.2
20260508075821 20 96 0.0 1.6 0.00 0.00 0.00 76 1014.3
20260508074821 20 96 0.0 0.0 0.00 0.00 0.00 76 1015.0
20260508073821 20 96 0.0 1.6 0.00 0.00 0.00 76 1015.2
20260508072821 20 96 0.0 1.6 0.00 0.00 0.00 76 1014.7
20260508071821 20 96 0.0 1.6 0.00 0.00 0.00 76 1015.1
20260508070821 20 96 1.6 1.6 0.00 0.00 0.00 76 1015.1
20260508065821 20 58 0.0 4.8 0.00 0.00 0.00 76 1015.0
20260508064821 20 68 0.0 3.2 0.00 0.00 0.00 76 1014.5
20260508063820 20 168 0.0 0.0 0.00 0.00 0.00 76 1014.8
20260508062820 20 47 0.0 0.0 0.00 0.00 0.00 75 1014.9
20260508061820 20 323 0.0 0.0 0.00 0.00 0.00 75 1015.4
20260508060821 20 319 0.0 1.6 0.00 0.00 0.00 75 1015.8
20260508055820 20 17 0.0 1.6 0.00 0.00 0.00 75 1015.5
20260508054820 20 62 0.0 1.6 0.00 0.00 0.00 75 1014.8
20260508053850 20 62 0.0 1.6 0.00 0.00 0.00 74 1014.7
20260508052820 20 62 0.0 1.6 0.00 0.00 0.00 74 1015.1
20260508051850 20 62 0.0 3.2 0.00 0.00 0.00 74 1014.6
20260508050820 20 61 0.0 4.8 0.00 0.00 0.00 74 1014.9
20260508045820 20 49 1.6 4.8 0.00 0.00 0.00 73 1015.1
20260508044820 20 69 0.0 4.8 0.00 0.00 0.00 73 1014.8
20260508043850 20 69 0.0 3.2 0.00 0.00 0.00 73 1014.9
20260508042845 20 88 0.0 3.2 0.00 0.00 0.00 73 1014.9
20260508041845 20 91 0.0 6.4 0.00 0.00 0.00 73 1015.0
20260508040845 20 78 0.0 0.0 0.00 0.00 0.00 73 1015.0
20260508035845 20 77 0.0 0.0 0.00 0.00 0.00 73 1015.2
20260508034845 20 77 0.0 0.0 0.00 0.00 0.00 73 1014.5
20260508033844 20 61 0.0 0.0 0.00 0.00 0.00 73 1014.6
20260508032844 20 61 0.0 0.0 0.00 0.00 0.00 73 1015.0
20260508031845 20 59 0.0 0.0 0.00 0.00 0.00 72 1015.4
20260508030845 21 59 0.0 0.0 0.00 0.00 0.00 72 1014.9
20260508025845 21 55 0.0 0.0 0.00 0.00 0.00 72 1015.0
20260508024844 21 45 0.0 0.0 0.00 0.00 0.00 72 1015.1
20260508023844 21 5 0.0 0.0 0.00 0.00 0.00 71 1015.3
20260508022844 21 5 0.0 0.0 0.00 0.00 0.00 70 1015.3
20260508021844 21 51 0.0 0.0 0.00 0.00 0.00 71 1015.0
20260508020844 21 305 0.0 0.0 0.00 0.00 0.00 70 1015.4
20260508015844 21 55 0.0 0.0 0.00 0.00 0.00 70 1015.3
20260508014844 21 305 0.0 0.0 0.00 0.00 0.00 70 1015.3
20260508013844 22 329 0.0 0.0 0.00 0.00 0.00 69 1015.5
20260508012844 22 311 0.0 0.0 0.00 0.00 0.00 69 1015.4
20260508011844 22 306 0.0 0.0 0.00 0.00 0.00 68 1015.0
20260508010844 23 292 0.0 0.0 0.00 0.00 0.00 68 1015.1
20260508005844 23 313 0.0 0.0 0.00 0.00 0.00 68 1015.1
20260508004844 23 301 0.0 4.8 0.00 0.00 0.00 67 1015.0
20260508003843 23 327 0.0 0.0 0.00 0.00 0.00 66 1014.8
20260508002844 23 360 0.0 1.6 0.00 0.00 0.00 66 1014.6
20260508001843 23 329 0.0 0.0 0.00 0.00 0.00 65 1015.2
20260508000843 24 329 0.0 4.8 0.00 0.00 0.00 65 1015.3
20260507235843 24 312 0.0 3.2 0.00 0.00 0.00 65 1015.0
20260507234843 25 313 0.0 3.2 0.00 0.00 0.00 65 1015.0
20260507233843 25 313 0.0 1.6 0.00 0.00 0.00 64 1015.1
20260507232843 25 313 0.0 4.8 0.00 0.00 0.00 64 1015.4
20260507231843 25 317 0.0 3.2 0.00 0.00 0.00 64 1015.4
20260507230843 25 332 0.0 8.0 0.00 0.00 0.00 63 1015.2
20260507225843 25 315 0.0 3.2 0.00 0.00 0.00 62 1015.0
20260507224843 25 36 0.0 1.6 0.00 0.00 0.00 62 1014.9
20260507223843 26 69 0.0 0.0 0.00 0.00 0.00 62 1014.7
20260507222842 26 330 0.0 0.0 0.00 0.00 0.00 61 1014.7
20260507221842 26 328 0.0 0.0 0.00 0.00 0.00 61 1014.6
20260507220843 26 75 0.0 0.0 0.00 0.00 0.00 62 1014.7
20260507215842 26 75 0.0 1.6 0.00 0.00 0.00 61 1015.1
20260507214842 26 29 0.0 0.0 0.00 0.00 0.00 61 1015.0
20260507213843 27 27 0.0 0.0 0.00 0.00 0.00 60 1015.1
20260507212843 27 61 0.0 3.2 0.00 0.00 0.00 59 1015.0
20260507211842 27 309 0.0 1.6 0.00 0.00 0.00 58 1014.9
20260507210842 28 328 0.0 3.2 0.00 0.00 0.00 59 1015.3
20260507205842 28 5 0.0 3.2 0.00 0.00 0.00 59 1015.5
20260507204842 27 42 0.0 3.2 0.00 0.00 0.00 61 1015.6
20260507203842 27 42 0.0 4.8 0.00 0.00 0.00 61 1015.6
20260507202842 27 311 1.6 4.8 0.00 0.00 0.00 60 1015.7
20260507201842 27 329 1.6 4.8 0.00 0.00 0.00 58 1015.7
20260507200842 27 341 0.0 9.7 0.00 0.00 0.00 60 1015.7
20260507195842 27 23 1.6 4.8 0.00 0.00 0.00 62 1015.7
20260507194841 26 59 0.0 6.4 0.00 0.00 0.00 62 1016.2
20260507193841 26 21 0.0 8.0 0.00 0.00 0.00 65 1016.3
20260507192841 25 31 0.0 6.4 0.00 0.00 0.00 65 1016.2
20260507191841 25 19 1.6 3.2 0.00 0.00 0.00 65 1016.2
20260507190841 25 38 0.0 3.2 0.00 0.00 0.00 67 1016.4
20260507185841 24 32 0.0 3.2 0.00 0.00 0.00 68 1016.8
20260507184841 23 38 0.0 4.8 0.00 0.00 0.00 69 1017.3
20260507183841 23 311 4.8 6.4 0.00 0.00 0.00 69 1017.1
20260507182841 23 63 0.0 3.2 0.00 0.00 0.00 70 1017.1
20260507181841 22 13 0.0 3.2 0.00 0.00 0.00 70 1017.3
20260507180841 22 34 0.0 6.4 0.00 0.00 0.00 72 1017.6
20260507175840 22 300 6.4 6.4 0.00 0.00 0.00 70 1017.5
20260507174840 21 298 1.6 6.4 0.00 0.00 0.00 72 1017.7
20260507173840 21 323 0.0 4.8 0.00 0.00 0.00 73 1017.6
20260507172841 21 343 0.0 4.8 0.00 0.00 0.00 74 1017.8
20260507171840 20 338 0.0 8.0 0.00 0.00 0.00 75 1018.2
20260507170840 20 340 1.6 6.4 0.00 0.00 0.00 76 1018.0
20260507165840 20 30 1.6 1.6 0.00 0.00 0.00 77 1018.0
20260507164840 19 330 0.0 3.2 0.00 0.00 0.00 77 1018.0
20260507163840 19 339 0.0 3.2 0.00 0.00 0.00 77 1017.8
20260507162840 18 41 0.0 1.6 0.00 0.00 0.00 78 1017.7
20260507161840 18 42 0.0 4.8 0.00 0.00 0.00 78 1017.5
20260507160840 18 51 0.0 3.2 0.00 0.00 0.00 79 1017.5
20260507155840 18 337 0.0 8.0 0.00 0.00 0.00 79 1017.7
20260507154840 17 23 0.0 3.2 0.00 0.00 0.00 80 1016.9
20260507153840 17 59 3.2 3.2 0.00 0.00 0.00 81 1017.0
20260507152840 17 41 1.6 1.6 0.00 0.00 0.00 81 1017.3
20260507151840 17 44 0.0 4.8 0.00 0.00 0.00 80 1017.6
20260507150839 17 5 1.6 14.5 0.00 0.00 0.00 81 1017.7
20260507145839 17 318 0.0 4.8 0.00 0.00 0.00 81 1017.8
20260507144840 17 12 0.0 6.4 0.00 0.00 0.00 82 1017.8
20260507143840 17 332 1.6 3.2 0.00 0.00 0.00 82 1018.2